Location: Wawayanda State Park
(41.1833°N, 74.4333°W)
Time: 07:53:30
(UTC-04:00)

Landsat 7 - Visible Passes

Search period start: 28 April 2015 00:00
Search period end: 08 May 2015 00:00
Orbit: 702 x 703 km, 98.2° (Epoch: 28 April)

Date Brightness Start Highest point End Pass type
(mag) Time Alt. Az. Time Alt. Az. Time Alt. Az.
28 Apr 5.9 21:05:54 10° E 21:07:20 12° ENE 21:09:04 10° NE visible
28 Apr 3.8 22:44:46 77° NW 22:44:46 77° NW 22:49:17 10° NNW visible
29 Apr 4.9 21:49:05 27° E 21:49:42 28° ENE 21:53:48 10° N visible
29 Apr 5.3 23:27:58 29° W 23:27:58 29° W 23:31:34 10° NW visible
30 Apr 3.7 22:32:16 75° ENE 22:32:17 75° ENE 22:37:04 10° N visible
01 May 6.5 00:11:09 11° W 00:11:09 11° W 00:11:53 10° WNW visible
01 May 5.2 21:36:35 21° E 21:37:35 22° ENE 21:41:16 10° NNE visible
01 May 4.8 23:15:27 39° W 23:15:27 39° W 23:19:36 10° NNW visible
02 May 3.9 22:19:46 55° E 22:20:07 56° ENE 22:24:47 10° N visible
02 May 6.2 23:58:39 15° W 23:58:39 15° W 00:00:55 10° NW visible
03 May 5.6 21:24:04 15° E 21:25:28 17° ENE 21:28:37 10° NNE visible
03 May 4.3 23:02:57 53° W 23:02:57 53° W 23:07:32 10° NNW visible
04 May 4.3 22:07:15 40° E 22:07:56 42° ENE 22:12:27 10° N visible
04 May 5.8 23:46:08 20° W 23:46:08 20° W 23:49:21 10° NW visible
05 May 5.8 21:11:34 11° E 21:13:23 13° ENE 21:15:44 10° NNE visible
05 May 3.8 22:50:27 71° WSW 22:50:37 72° WSW 22:55:24 10° NNW visible
06 May 4.7 21:54:45 29° E 21:55:47 32° ENE 22:00:02 10° N visible
06 May 5.4 23:33:38 26° W 23:33:38 26° W 23:37:32 10° NW visible
07 May 6.1 21:01:07 10° ENE 21:01:19 10° ENE 21:01:47 10° NE visible
07 May 3.6 22:37:56 73° SSE 22:38:24 86° ENE 22:43:11 10° NNW visible
